Location: Newark
(39.0622°N, 106.5590°E)
Time: 08:16:54
(UTC+00:00)

SR - All Passes

Search period start: 25 January 2020 00:00
Search period end: 04 February 2020 00:00
Orbit: 574 x 882 km, 66.7° (Epoch: 24 January)

Date Brightness Start Highest point End Pass type
(mag) Time Alt. Az. Time Alt. Az. Time Alt. Az.
25 Jan - 01:14:29 10° NW 01:19:04 29° WSW 01:23:19 10° SSW daylight
25 Jan - 14:00:00 10° S 14:05:05 34° ESE 14:10:21 10° NE night (unlit)
25 Jan - 15:41:41 10° WSW 15:47:07 39° NW 15:52:41 10° NNE night (unlit)
25 Jan - 22:42:55 10° N 22:47:05 21° NE 22:50:59 10° E visible
26 Jan - 00:24:18 10° NW 00:29:41 60° WSW 00:34:34 10° SSE daylight
26 Jan - 13:12:14 10° SE 13:15:49 17° ESE 13:19:27 10° ENE night (unlit)
26 Jan - 14:51:28 10° SW 14:57:16 72° WNW 15:03:13 10° NNE night (unlit)
26 Jan - 16:37:17 10° WNW 16:40:27 15° NW 16:43:37 10° N night (unlit)
26 Jan - 21:54:31 10° NNE 21:56:46 12° NE 21:58:56 10° ENE visible
26 Jan - 23:34:33 10° NNW 23:40:02 68° ENE 23:45:02 10° SE visible
27 Jan - 01:18:36 10° WNW 01:21:21 14° WSW 01:23:58 10° SW daylight
27 Jan - 14:01:55 10° SSW 14:07:37 62° ESE 14:13:29 10° NE night (unlit)
27 Jan - 15:45:30 10° W 15:50:11 24° NW 15:54:56 10° N night (unlit)
27 Jan - 22:45:07 10° NNW 22:50:10 35° NE 22:54:48 10° ESE visible
28 Jan - 00:27:28 10° NW 00:32:08 30° WSW 00:36:26 10° SSW daylight
28 Jan - 13:13:08 10° S 13:18:10 32° ESE 13:23:19 10° NE night (unlit)
28 Jan - 14:54:38 10° SW 15:00:08 41° NW 15:05:45 10° NNE night (unlit)
28 Jan - 21:56:03 10° N 22:00:04 20° NE 22:03:50 10° E visible
28 Jan - 23:37:20 10° NW 23:42:43 64° WSW 23:47:36 10° SSE visible
29 Jan - 12:25:31 10° SE 12:28:54 16° ESE 12:32:19 10° ENE night (unlit)
29 Jan - 14:04:29 10° SSW 14:10:18 76° WNW 14:16:17 10° NNE night (unlit)
29 Jan - 15:50:05 10° WNW 15:53:25 15° NW 15:56:47 10° N night (unlit)
29 Jan - 21:07:50 10° NNE 21:09:43 12° NE 21:11:34 10° ENE visible
29 Jan - 22:47:37 10° NNW 22:53:04 63° ENE 22:58:00 10° SE visible
30 Jan - 00:31:27 10° WNW 00:34:25 15° WSW 00:37:14 10° SW daylight
30 Jan - 13:15:01 10° S 13:20:41 58° ESE 13:26:30 10° NE visible
30 Jan - 14:58:23 10° WSW 15:03:11 25° NW 15:08:02 10° N night (unlit)
30 Jan - 21:58:13 10° NNW 22:03:10 33° NE 22:07:43 10° ESE visible
30 Jan - 23:40:28 10° NW 23:45:11 32° WSW 23:49:32 10° S daylight
31 Jan - 12:26:17 10° SSE 12:31:14 30° ESE 12:36:18 10° NE visible
31 Jan - 14:07:35 10° SW 14:13:10 44° NW 14:18:49 10° NNE visible
31 Jan - 21:09:12 10° N 21:13:02 19° NE 21:16:39 10° E visible
31 Jan - 22:50:22 10° NNW 22:55:45 69° WSW 23:00:38 10° SSE visible
01 Feb - 11:38:51 10° SE 11:41:59 15° ESE 11:45:10 10° ENE visible
01 Feb - 13:17:30 10° SSW 13:23:21 80° WNW 13:29:19 10° NNE visible
01 Feb - 15:02:53 10° WNW 15:06:24 16° NW 15:09:56 10° N night (unlit)
01 Feb - 20:21:14 10° NNE 20:22:40 11° NE 20:24:05 10° NE visible
01 Feb - 22:00:41 10° NNW 22:06:04 59° ENE 22:10:58 10° SE visible
01 Feb - 23:44:19 10° WNW 23:47:29 16° WSW 23:50:29 10° SW daylight
02 Feb - 12:28:05 10° S 12:33:44 55° ESE 12:39:31 10° NE visible
02 Feb - 14:11:17 10° WSW 14:16:11 26° NW 14:21:08 10° N visible
02 Feb - 21:11:19 10° N 21:16:09 31° NE 21:20:37 10° ESE visible
02 Feb - 22:53:27 10° NW 22:58:14 34° WSW 23:02:37 10° S visible
03 Feb - 11:39:26 10° SSE 11:44:19 28° ESE 11:49:17 10° NE visible
03 Feb - 13:20:34 10° SW 13:26:11 46° NW 13:31:53 10° NNE visible
03 Feb - 20:22:21 10° N 20:25:59 18° NE 20:29:27 10° E visible
03 Feb - 22:03:24 10° NNW 22:08:47 73° WSW 22:13:38 10° SSE visible
